Location: Shepherdstown, WV
(39.4326°N, 77.8042°W)
Time: 06:11:52
(UTC-04:00)

SR - Pass Details

Date: 05 August 2021
Orbit: 581 x 874 km, 66.7° (Epoch: 24 September)

Event Time Altitude Azimuth Distance (km) Brightness Sun altitude
Rises 13:27:31 0° 346° (NNW) 3,102 ? 67.2°
Reaches altitude 10° 13:31:30 10° 18° (NNE) 2,102 ? 67.1°
Maximum altitude 13:33:20 12° 40° (NE) 1,932 ? 67.1°
Drops below altitude 10° 13:35:07 10° 64° (ENE) 2,034 ? 67.0°
Sets 13:38:47 0° 96° (E) 2,878 ? 66.8°
